| time (UTC) | temp F | wind direction | speed knots | gust knots | rain 1hr in | rain 24hr in | rain mn in | humidity % | barometer mb |
| 20260506122704 | 66 | 186 | 3.5 | 13.0 | 0.00 | 0.00 | 0.00 | 71 | 1009.0 |
| 20260506121803 | 66 | 199 | 3.5 | 12.2 | 0.00 | 0.00 | 0.00 | 71 | 1009.2 |
| 20260506120903 | 66 | 192 | 3.5 | 9.6 | 0.00 | 0.00 | 0.00 | 71 | 1009.2 |
| 20260506120003 | 67 | 175 | 3.5 | 11.3 | 0.00 | 0.00 | 0.00 | 71 | 1009.4 |
| 20260506115425 | 66 | 196 | 3.5 | 9.6 | 0.00 | 0.00 | 0.00 | 71 | 1009.5 |
| 20260506114503 | 66 | 202 | 3.5 | 10.4 | 0.00 | 0.00 | 0.00 | 72 | 1009.5 |
| 20260506113604 | 66 | 178 | 3.5 | 10.4 | 0.00 | 0.00 | 0.00 | 72 | 1009.6 |
| 20260506112706 | 66 | 186 | 2.6 | 8.7 | 0.00 | 0.00 | 0.00 | 72 | 1009.5 |
| 20260506111803 | 66 | 200 | 3.5 | 9.6 | 0.00 | 0.00 | 0.00 | 73 | 1009.5 |
| 20260506110903 | 65 | 190 | 5.2 | 14.8 | 0.00 | 0.00 | 0.00 | 74 | 1009.3 |
| 20260506110004 | 65 | 183 | 3.5 | 10.4 | 0.00 | 0.00 | 0.00 | 74 | 1009.2 |
| 20260506105403 | 65 | 187 | 3.5 | 10.4 | 0.00 | 0.00 | 0.00 | 75 | 1009.2 |
| 20260506104504 | 64 | 192 | 3.5 | 9.6 | 0.00 | 0.00 | 0.00 | 76 | 1009.2 |
| 20260506103603 | 64 | 186 | 3.5 | 12.2 | 0.00 | 0.00 | 0.00 | 76 | 1009.3 |
| 20260506102703 | 64 | 181 | 2.6 | 7.0 | 0.00 | 0.00 | 0.00 | 77 | 1009.3 |
| 20260506101804 | 64 | 192 | 3.5 | 12.2 | 0.00 | 0.00 | 0.00 | 77 | 1009.2 |
| 20260506100904 | 63 | 202 | 2.6 | 12.2 | 0.00 | 0.00 | 0.00 | 78 | 1009.1 |
| 20260506100004 | 63 | 180 | 2.6 | 7.0 | 0.00 | 0.00 | 0.00 | 79 | 1009.0 |
| 20260506095404 | 63 | 182 | 2.6 | 6.1 | 0.00 | 0.00 | 0.00 | 79 | 1009.0 |
| 20260506094504 | 62 | 192 | 1.7 | 7.0 | 0.00 | 0.00 | 0.00 | 79 | 1009.1 |
| 20260506093603 | 63 | 190 | 1.7 | 8.7 | 0.00 | 0.00 | 0.00 | 79 | 1009.0 |
| 20260506092704 | 63 | 187 | 1.7 | 6.1 | 0.00 | 0.00 | 0.00 | 78 | 1009.1 |
| 20260506091803 | 63 | 201 | 1.7 | 6.1 | 0.00 | 0.00 | 0.00 | 78 | 1009.2 |
| 20260506090904 | 63 | 202 | 2.6 | 5.2 | 0.00 | 0.00 | 0.00 | 77 | 1009.2 |
| 20260506090004 | 63 | 180 | 2.6 | 7.8 | 0.00 | 0.00 | 0.00 | 77 | 1009.2 |
| 20260506085425 | 64 | 180 | 2.6 | 7.8 | 0.00 | 0.00 | 0.00 | 76 | 1009.2 |
| 20260506084504 | 64 | 187 | 2.6 | 7.8 | 0.00 | 0.00 | 0.00 | 76 | 1009.2 |
| 20260506083603 | 64 | 196 | 1.7 | 6.1 | 0.00 | 0.00 | 0.00 | 76 | 1009.3 |
| 20260506082725 | 64 | 201 | 1.7 | 5.2 | 0.00 | 0.00 | 0.00 | 75 | 1009.3 |
| 20260506081803 | 64 | 189 | 3.5 | 9.6 | 0.00 | 0.00 | 0.00 | 75 | 1009.4 |
| 20260506080924 | 64 | 195 | 2.6 | 7.0 | 0.00 | 0.00 | 0.00 | 74 | 1009.3 |
| 20260506072703 | 65 | 187 | 2.6 | 8.7 | 0.00 | 0.00 | 0.00 | 72 | 1009.4 |
| 20260506071804 | 65 | 187 | 3.5 | 8.7 | 0.00 | 0.00 | 0.00 | 71 | 1009.4 |
| 20260506070925 | 66 | 172 | 2.6 | 7.8 | 0.00 | 0.00 | 0.00 | 71 | 1009.5 |
| 20260506061824 | 66 | 197 | 2.6 | 7.0 | 0.00 | 0.00 | 0.00 | 68 | 1009.5 |
| 20260506060903 | 66 | 182 | 2.6 | 8.7 | 0.00 | 0.00 | 0.00 | 67 | 1009.4 |
| 20260506050903 | 68 | 174 | 2.6 | 8.7 | 0.00 | 0.00 | 0.00 | 63 | 1010.1 |
| 20260506044524 | 68 | 203 | 2.6 | 7.8 | 0.00 | 0.00 | 0.00 | 62 | 1010.0 |
| 20260506043603 | 68 | 183 | 3.5 | 13.0 | 0.00 | 0.00 | 0.00 | 61 | 1010.1 |
| 20260506042703 | 68 | 191 | 3.5 | 13.9 | 0.00 | 0.00 | 0.00 | 61 | 1010.1 |
| 20260506041804 | 69 | 200 | 3.5 | 14.8 | 0.00 | 0.00 | 0.00 | 60 | 1010.0 |
| 20260506040904 | 69 | 177 | 4.3 | 14.8 | 0.00 | 0.00 | 0.00 | 60 | 1009.9 |
| 20260506040004 | 69 | 196 | 4.3 | 14.8 | 0.00 | 0.00 | 0.00 | 59 | 1009.9 |
| 20260506035404 | 69 | 190 | 3.5 | 14.8 | 0.00 | 0.00 | 0.00 | 59 | 1009.9 |
| 20260506034504 | 69 | 197 | 4.3 | 16.5 | 0.00 | 0.00 | 0.00 | 59 | 1010.0 |
| 20260506033604 | 69 | 189 | 3.5 | 13.9 | 0.00 | 0.00 | 0.00 | 58 | 1010.0 |
| 20260506032704 | 70 | 187 | 4.3 | 14.8 | 0.00 | 0.00 | 0.00 | 57 | 1009.9 |
| 20260506031804 | 70 | 192 | 3.5 | 9.6 | 0.00 | 0.00 | 0.00 | 57 | 1009.9 |
| 20260506030904 | 70 | 196 | 3.5 | 12.2 | 0.00 | 0.00 | 0.00 | 57 | 1009.9 |
| 20260506030005 | 70 | 199 | 4.3 | 11.3 | 0.00 | 0.00 | 0.00 | 56 | 1009.8 |
| 20260506025404 | 70 | 187 | 3.5 | 9.6 | 0.00 | 0.00 | 0.00 | 56 | 1009.7 |
| 20260506024503 | 71 | 184 | 4.3 | 18.2 | 0.00 | 0.00 | 0.00 | 55 | 1009.8 |
| 20260506023604 | 71 | 190 | 5.2 | 12.2 | 0.00 | 0.00 | 0.00 | 55 | 1009.9 |
| 20260506022703 | 71 | 189 | 4.3 | 12.2 | 0.00 | 0.00 | 0.00 | 54 | 1009.9 |
| 20260506021803 | 72 | 187 | 5.2 | 13.0 | 0.00 | 0.00 | 0.00 | 53 | 1009.8 |
| 20260506020903 | 72 | 194 | 5.2 | 14.8 | 0.00 | 0.00 | 0.00 | 52 | 1009.8 |
| 20260506020004 | 73 | 181 | 5.2 | 13.0 | 0.00 | 0.00 | 0.00 | 50 | 1009.8 |
| 20260506015404 | 73 | 187 | 4.3 | 12.2 | 0.00 | 0.00 | 0.00 | 49 | 1009.6 |
| 20260506014503 | 74 | 189 | 4.3 | 12.2 | 0.00 | 0.00 | 0.00 | 46 | 1009.6 |
| 20260506013603 | 75 | 180 | 4.3 | 12.2 | 0.00 | 0.00 | 0.00 | 44 | 1009.4 |
| 20260506012703 | 75 | 181 | 4.3 | 17.4 | 0.00 | 0.00 | 0.00 | 43 | 1009.4 |
| 20260506011824 | 75 | 188 | 3.5 | 17.4 | 0.00 | 0.00 | 0.00 | 42 | 1009.2 |
| 20260506010904 | 76 | 190 | 3.5 | 13.9 | 0.00 | 0.00 | 0.00 | 42 | 1009.2 |
| 20260506010024 | 76 | 191 | 3.5 | 12.2 | 0.00 | 0.00 | 0.00 | 42 | 1009.1 |
| 20260506005403 | 76 | 201 | 3.5 | 12.2 | 0.00 | 0.00 | 0.00 | 41 | 1009.0 |
| 20260506004503 | 76 | 186 | 2.6 | 12.2 | 0.00 | 0.00 | 0.00 | 41 | 1008.8 |
| 20260506003605 | 77 | 187 | 2.6 | 9.6 | 0.00 | 0.00 | 0.00 | 40 | 1008.9 |
| 20260506002703 | 77 | 191 | 4.3 | 10.4 | 0.00 | 0.00 | 0.00 | 38 | 1008.8 |
| 20260506001803 | 77 | 186 | 3.5 | 9.6 | 0.00 | 0.00 | 0.00 | 37 | 1008.7 |
| 20260506000904 | 78 | 196 | 2.6 | 10.4 | 0.00 | 0.00 | 0.00 | 36 | 1008.7 |
| 20260506000026 | 78 | 204 | 3.5 | 13.0 | 0.00 | 0.00 | 0.00 | 35 | 1008.4 |
| 20260505235425 | 78 | 215 | 2.6 | 8.7 | 0.00 | 0.00 | 0.00 | 34 | 1008.5 |
| 20260505234504 | 78 | 218 | 4.3 | 12.2 | 0.00 | 0.00 | 0.00 | 34 | 1008.4 |
| 20260505233625 | 79 | 211 | 4.3 | 13.0 | 0.00 | 0.00 | 0.00 | 34 | 1008.3 |
| 20260505232726 | 79 | 185 | 3.5 | 13.0 | 0.00 | 0.00 | 0.00 | 34 | 1008.4 |
| 20260505231804 | 79 | 184 | 4.3 | 13.9 | 0.00 | 0.00 | 0.00 | 32 | 1008.1 |
| 20260505230904 | 79 | 184 | 3.5 | 13.0 | 0.00 | 0.00 | 0.00 | 32 | 1008.1 |
| 20260505230004 | 80 | 181 | 2.6 | 13.9 | 0.00 | 0.00 | 0.00 | 30 | 1008.0 |
| 20260505225405 | 80 | 199 | 3.5 | 13.9 | 0.00 | 0.00 | 0.00 | 30 | 1007.9 |
| 20260505224504 | 80 | 206 | 4.3 | 16.5 | 0.00 | 0.00 | 0.00 | 29 | 1007.7 |
| 20260505223604 | 80 | 190 | 4.3 | 10.4 | 0.00 | 0.00 | 0.00 | 29 | 1007.5 |
| 20260505222704 | 81 | 211 | 5.2 | 12.2 | 0.00 | 0.00 | 0.00 | 29 | 1007.6 |
| 20260505221804 | 81 | 236 | 3.5 | 13.0 | 0.00 | 0.00 | 0.00 | 30 | 1007.6 |
| 20260505220904 | 81 | 262 | 2.6 | 12.2 | 0.00 | 0.00 | 0.00 | 31 | 1007.6 |
| 20260505220004 | 81 | 263 | 3.5 | 14.8 | 0.00 | 0.00 | 0.00 | 30 | 1007.5 |
| 20260505215404 | 81 | 230 | 4.3 | 13.0 | 0.00 | 0.00 | 0.00 | 30 | 1007.4 |
| 20260505214504 | 81 | 215 | 3.5 | 8.7 | 0.00 | 0.00 | 0.00 | 30 | 1007.4 |
| 20260505213604 | 82 | 257 | 5.2 | 16.5 | 0.00 | 0.00 | 0.00 | 29 | 1007.3 |
| 20260505212725 | 82 | 293 | 4.3 | 16.5 | 0.00 | 0.00 | 0.00 | 29 | 1007.2 |
| 20260505211804 | 83 | 218 | 4.3 | 16.5 | 0.00 | 0.00 | 0.00 | 29 | 1007.2 |
| 20260505210904 | 83 | 201 | 6.1 | 20.0 | 0.00 | 0.00 | 0.00 | 29 | 1007.1 |
| 20260505210004 | 83 | 220 | 4.3 | 13.9 | 0.00 | 0.00 | 0.00 | 30 | 1007.1 |
| 20260505205404 | 83 | 222 | 4.3 | 13.9 | 0.00 | 0.00 | 0.00 | 29 | 1006.9 |
| 20260505204503 | 84 | 227 | 4.3 | 14.8 | 0.00 | 0.00 | 0.00 | 29 | 1006.9 |
| 20260505203604 | 84 | 238 | 4.3 | 13.0 | 0.00 | 0.00 | 0.00 | 31 | 1007.0 |
| 20260505202704 | 84 | 209 | 4.3 | 14.8 | 0.00 | 0.00 | 0.00 | 30 | 1007.2 |
| 20260505201803 | 83 | 203 | 5.2 | 13.9 | 0.00 | 0.00 | 0.00 | 30 | 1007.2 |
| 20260505200904 | 83 | 204 | 5.2 | 15.6 | 0.00 | 0.00 | 0.00 | 30 | 1007.3 |
| 20260505200025 | 83 | 197 | 6.1 | 19.1 | 0.00 | 0.00 | 0.00 | 30 | 1007.3 |
| 20260505195404 | 83 | 196 | 6.1 | 17.4 | 0.00 | 0.00 | 0.00 | 30 | 1007.4 |
| 20260505194504 | 83 | 195 | 6.1 | 20.9 | 0.00 | 0.00 | 0.00 | 30 | 1007.4 |
| 20260505193604 | 83 | 206 | 6.1 | 18.2 | 0.00 | 0.00 | 0.00 | 30 | 1007.6 |
| 20260505192727 | 83 | 201 | 7.0 | 17.4 | 0.00 | 0.00 | 0.00 | 30 | 1007.8 |
| 20260505191804 | 83 | 176 | 7.0 | 20.9 | 0.00 | 0.00 | 0.00 | 32 | 1007.8 |
| 20260505190904 | 83 | 194 | 5.2 | 16.5 | 0.00 | 0.00 | 0.00 | 31 | 1008.0 |
| 20260505190025 | 83 | 184 | 6.1 | 16.5 | 0.00 | 0.00 | 0.00 | 32 | 1008.1 |
| 20260505185404 | 83 | 184 | 6.1 | 17.4 | 0.00 | 0.00 | 0.00 | 33 | 1008.2 |
| 20260505184525 | 83 | 188 | 5.2 | 17.4 | 0.00 | 0.00 | 0.00 | 32 | 1008.7 |
| 20260505183605 | 83 | 200 | 5.2 | 14.8 | 0.00 | 0.00 | 0.00 | 35 | 1008.6 |
| 20260505182703 | 82 | 190 | 5.2 | 16.5 | 0.00 | 0.00 | 0.00 | 37 | 1008.6 |
| 20260505181803 | 82 | 194 | 6.1 | 18.2 | 0.00 | 0.00 | 0.00 | 36 | 1008.6 |
| 20260505180905 | 82 | 190 | 7.8 | 16.5 | 0.00 | 0.00 | 0.00 | 36 | 1008.7 |
| 20260505180004 | 82 | 173 | 7.0 | 26.1 | 0.00 | 0.00 | 0.00 | 35 | 1008.9 |
| 20260505175404 | 82 | 176 | 6.1 | 17.4 | 0.00 | 0.00 | 0.00 | 36 | 1008.6 |
| 20260505174503 | 82 | 184 | 6.1 | 16.5 | 0.00 | 0.00 | 0.00 | 35 | 1008.8 |
| 20260505173603 | 82 | 182 | 4.3 | 13.9 | 0.00 | 0.00 | 0.00 | 38 | 1008.9 |
| 20260505172724 | 82 | 185 | 2.6 | 9.6 | 0.00 | 0.00 | 0.00 | 39 | 1009.1 |
| 20260505171803 | 82 | 198 | 4.3 | 13.9 | 0.00 | 0.00 | 0.00 | 39 | 1009.2 |
| 20260505170924 | 82 | 203 | 2.6 | 13.9 | 0.00 | 0.00 | 0.00 | 40 | 1009.2 |
| 20260505170003 | 81 | 182 | 3.5 | 15.6 | 0.00 | 0.00 | 0.00 | 39 | 1009.3 |
| 20260505165403 | 80 | 183 | 5.2 | 15.6 | 0.00 | 0.00 | 0.00 | 40 | 1009.5 |
| 20260505164504 | 80 | 199 | 3.5 | 12.2 | 0.00 | 0.00 | 0.00 | 41 | 1009.6 |
| 20260505163605 | 81 | 186 | 2.6 | 7.8 | 0.00 | 0.00 | 0.00 | 41 | 1009.7 |
| 20260505162703 | 80 | 225 | 2.6 | 8.7 | 0.00 | 0.00 | 0.00 | 42 | 1009.9 |
| 20260505161803 | 79 | 203 | 4.3 | 14.8 | 0.00 | 0.00 | 0.00 | 41 | 1010.1 |
| 20260505160924 | 79 | 200 | 3.5 | 12.2 | 0.00 | 0.00 | 0.00 | 44 | 1010.0 |
| 20260505152704 | 77 | 185 | 2.6 | 7.8 | 0.00 | 0.00 | 0.00 | 45 | 1010.7 |
| 20260505151803 | 76 | 233 | 2.6 | 8.7 | 0.00 | 0.00 | 0.00 | 47 | 1010.8 |
| 20260505150903 | 76 | 218 | 1.7 | 12.2 | 0.00 | 0.00 | 0.00 | 49 | 1010.8 |
| 20260505124505 | 67 | 184 | 2.6 | 7.8 | 0.00 | 0.00 | 0.00 | 62 | 1010.7 |
| 20260505123604 | 65 | 202 | 3.5 | 7.8 | 0.00 | 0.00 | 0.00 | 65 | 1010.7 |